Flag for U.S.A. Weather past 2 weeks in Rancho Cucamonga, California, U.S.A.

Now
81 °F

Passing clouds.


Feels Like: 81 °F
Forecast: 72 / 96 °F
Wind: 6 mph from Southwest

Location: Ontario International Airport

Current Time: Jul 25, 2014 at 12:37:44 AM

Latest Report: Jul 24, 2014 at 11:53 PM


Visibility: 10 mi

Pressure: 29.78 "Hg

Humidity: 39%

Dew point: 54 °F

Location of Rancho CucamongaLocation

Historic Weather in Rancho Cucamonga — Graph

°F

Rancho Cucamonga temperature yesterday

Maximum temperature yesterday: 104 °F (at 2:53 PM)
Minimum temperature yesterday: 70 °F (at 5:53 AM)
Average temperature yesterday: 86 °F

Past Weeks' High & Low Weather Summary

 TemperatureHumidityPressure
High104 °F (Jul 24, 2:53 PM)87% (Jul 10, 4:53 AM)30.07 "Hg (Jul 10, 4:53 AM)
Low62 °F (Jul 18, 3:53 AM)11% (Jul 24, 12:53 PM)29.68 "Hg (Jul 24, 5:53 PM)
Average75 °F58%29.92 "Hg
* Reported Jul 9 10:53 PM — Jul 24 10:53 PM, Rancho Cucamonga, Weather by CustomWeather, © 2014

Note: Actual official high and low records may vary slightly from our data, if they occured in-between our weather recording intervals... More about our weather records

Advertising

Rancho Cucamonga weather history for previous 24 hours

 ConditionsComfort  
Time TempWeatherWind HumidityBarometerVisibility
10:53 PM
Jul 24
80 °FPassing clouds.5 mph39%29.77 "Hg10 mi
9:53 PM84 °FPassing clouds.6 mph35%29.76 "Hg10 mi
8:53 PM86 °FPassing clouds.6 mph30%29.74 "Hg10 mi
7:53 PM91 °FPassing clouds.10 mph23%29.71 "Hg10 mi
6:53 PM95 °FPassing clouds.13 mph20%29.69 "Hg10 mi
5:53 PM98 °FPassing clouds.13 mph18%29.68 "Hg10 mi
4:53 PM101 °FPassing clouds.16 mph19%29.69 "Hg10 mi
3:53 PM104 °FPassing clouds.12 mph15%29.70 "Hg10 mi
2:53 PM104 °FPassing clouds.13 mph12%29.72 "Hg10 mi
1:53 PM103 °FPassing clouds.9 mph12%29.73 "Hg10 mi
12:53 PM100 °FPassing clouds.7 mph11%29.75 "Hg10 mi
11:53 AM95 °FPassing clouds.6 mph18%29.78 "Hg10 mi
10:53 AM90 °FPassing clouds.No wind24%29.80 "Hg10 mi
9:53 AM84 °FPassing clouds.3 mph33%29.82 "Hg10 mi
8:53 AM79 °FPassing clouds.No wind44%29.83 "Hg10 mi
7:53 AM75 °FPassing clouds.3 mph52%29.84 "Hg10 mi
6:53 AM72 °FPassing clouds.No wind55%29.83 "Hg10 mi
5:53 AM70 °FPassing clouds.No wind64%29.82 "Hg10 mi
4:53 AM71 °FClear.No wind59%29.81 "Hg10 mi
3:53 AM71 °FClear.No wind59%29.81 "Hg10 mi
2:53 AM71 °FClear.No wind59%29.82 "Hg10 mi
1:53 AM72 °FClear.No wind55%29.83 "Hg10 mi
12:53 AM75 °FClear.No wind50%29.85 "Hg10 mi
Weather by CustomWeather, © 2014

See weather overviewHow to use our weather pages